| time (UTC) | temp F | wind direction | speed MPH | gust MPH | rain 1hr in | rain 24hr in | rain mn in | humidity % | barometer mb |
| 20260905103204 | 77 | 138 | 4.0 | 5.0 | 0.00 | 0.00 | 0.00 | 81 | 1000.0 |
| 20260905102703 | 77 | 133 | 5.0 | 6.0 | 0.00 | 0.00 | 0.00 | 80 | 1000.0 |
| 20260905102205 | 78 | 138 | 3.0 | 5.0 | 0.00 | 0.00 | 0.00 | 79 | 1000.0 |
| 20260905101703 | 78 | 134 | 3.0 | 6.0 | 0.00 | 0.00 | 0.00 | 78 | 1000.0 |
| 20260905101203 | 78 | 131 | 5.0 | 6.0 | 0.00 | 0.00 | 0.00 | 76 | 1000.0 |
| 20260905100704 | 79 | 127 | 5.0 | 6.0 | 0.00 | 0.00 | 0.00 | 74 | 1000.0 |
| 20260905100204 | 79 | 136 | 3.0 | 5.0 | 0.00 | 0.00 | 0.00 | 74 | 1000.0 |
| 20260905095204 | 81 | 152 | 2.0 | 5.0 | 0.00 | 0.00 | 0.00 | 69 | 1000.0 |
| 20260905094703 | 81 | 185 | 4.0 | 6.0 | 0.00 | 0.00 | 0.00 | 67 | 1000.0 |
| 20260905094204 | 81 | 185 | 3.0 | 5.0 | 0.00 | 0.00 | 0.00 | 69 | 1000.0 |
| 20260905093703 | 80 | 183 | 3.0 | 5.0 | 0.00 | 0.00 | 0.00 | 73 | 1000.0 |
| 20260905092704 | 79 | 140 | 3.0 | 5.0 | 0.00 | 0.00 | 0.00 | 79 | 1000.0 |
| 20260905092203 | 79 | 131 | 3.0 | 5.0 | 0.00 | 0.00 | 0.00 | 78 | 1000.0 |
| 20260905091705 | 80 | 131 | 3.0 | 3.0 | 0.00 | 0.00 | 0.00 | 76 | 1000.0 |
| 20260905091204 | 80 | 134 | 2.0 | 3.0 | 0.00 | 0.00 | 0.00 | 75 | 1000.0 |
| 20260905090204 | 80 | 128 | 3.0 | 5.0 | 0.00 | 0.00 | 0.00 | 76 | 1000.0 |
| 20260905085203 | 81 | 137 | 1.0 | 2.0 | 0.00 | 0.00 | 0.00 | 69 | 1000.0 |
| 20260905084704 | 82 | 156 | 1.0 | 3.0 | 0.00 | 0.00 | 0.00 | 68 | 1000.0 |
| 20260905084203 | 82 | 145 | 0.0 | 2.0 | 0.00 | 0.00 | 0.00 | 66 | 1000.0 |
| 20260905083704 | 82 | 84 | 0.0 | 0.0 | 0.00 | 0.00 | 0.00 | 65 | 1000.0 |
| 20260905083204 | 83 | 84 | 0.0 | 2.0 | 0.00 | 0.00 | 0.00 | 64 | 1000.0 |
| 20260905082204 | 84 | 299 | 0.0 | 2.0 | 0.00 | 0.00 | 0.00 | 62 | 1000.0 |
| 20260905081703 | 84 | 278 | 0.0 | 3.0 | 0.00 | 0.00 | 0.00 | 60 | 1000.0 |
| 20260905081204 | 84 | 221 | 3.0 | 8.0 | 0.00 | 0.00 | 0.00 | 59 | 1000.0 |
| 20260905080703 | 84 | 210 | 5.0 | 8.0 | 0.00 | 0.00 | 0.00 | 59 | 1000.0 |
| 20260905080203 | 84 | 220 | 3.0 | 5.0 | 0.00 | 0.00 | 0.00 | 59 | 1000.0 |
| 20260905075704 | 84 | 194 | 4.0 | 6.0 | 0.00 | 0.00 | 0.00 | 58 | 1000.0 |
| 20260905075203 | 84 | 208 | 4.0 | 8.0 | 0.00 | 0.00 | 0.00 | 59 | 1000.0 |
| 20260905074704 | 83 | 197 | 5.0 | 6.0 | 0.00 | 0.00 | 0.00 | 60 | 1000.0 |
| 20260905074203 | 83 | 185 | 3.0 | 5.0 | 0.00 | 0.00 | 0.00 | 62 | 1000.0 |
| 20260905073204 | 83 | 184 | 3.0 | 6.0 | 0.00 | 0.00 | 0.00 | 61 | 1000.0 |
| 20260905072703 | 83 | 182 | 3.0 | 5.0 | 0.00 | 0.00 | 0.00 | 62 | 1000.0 |
| 20260905071703 | 83 | 170 | 4.0 | 6.0 | 0.00 | 0.00 | 0.00 | 61 | 1000.0 |
| 20260905071204 | 83 | 178 | 5.0 | 6.0 | 0.00 | 0.00 | 0.00 | 62 | 1000.0 |
| 20260905070703 | 83 | 166 | 4.0 | 7.0 | 0.00 | 0.00 | 0.00 | 63 | 1000.0 |
| 20260905065704 | 82 | 163 | 3.0 | 5.0 | 0.00 | 0.00 | 0.00 | 67 | 1000.0 |
| 20260905065203 | 81 | 152 | 5.0 | 6.0 | 0.00 | 0.00 | 0.00 | 69 | 1000.0 |
| 20260905064203 | 82 | 135 | 5.0 | 6.0 | 0.00 | 0.00 | 0.00 | 67 | 1000.0 |
| 20260905063704 | 82 | 137 | 5.0 | 7.0 | 0.00 | 0.00 | 0.00 | 65 | 1000.0 |
| 20260905063203 | 83 | 139 | 5.0 | 7.0 | 0.00 | 0.00 | 0.00 | 62 | 1000.0 |
| 20260905062703 | 83 | 144 | 3.0 | 5.0 | 0.00 | 0.00 | 0.00 | 61 | 1000.0 |
| 20260905062204 | 83 | 162 | 3.0 | 6.0 | 0.00 | 0.00 | 0.00 | 61 | 1000.0 |
| 20260905061704 | 83 | 176 | 5.0 | 7.0 | 0.00 | 0.00 | 0.00 | 63 | 1000.0 |
| 20260905061203 | 83 | 156 | 5.0 | 6.0 | 0.00 | 0.00 | 0.00 | 66 | 1000.0 |
| 20260905060703 | 83 | 145 | 3.0 | 6.0 | 0.00 | 0.00 | 0.00 | 68 | 1000.0 |
| 20260905060203 | 82 | 143 | 5.0 | 6.0 | 0.00 | 0.00 | 0.00 | 70 | 1000.0 |
| 20260905055704 | 82 | 132 | 6.0 | 7.0 | 0.00 | 0.00 | 0.00 | 69 | 1000.0 |
| 20260905055204 | 83 | 118 | 5.0 | 6.0 | 0.00 | 0.00 | 0.00 | 68 | 1000.0 |
| 20260905054703 | 83 | 125 | 5.0 | 6.0 | 0.00 | 0.00 | 0.00 | 65 | 1000.0 |
| 20260905054204 | 84 | 140 | 3.0 | 5.0 | 0.00 | 0.00 | 0.00 | 61 | 1000.0 |
| 20260905053704 | 85 | 147 | 3.0 | 5.0 | 0.00 | 0.00 | 0.00 | 60 | 1000.0 |
| 20260905053203 | 85 | 154 | 3.0 | 5.0 | 0.00 | 0.00 | 0.00 | 61 | 1000.0 |
| 20260905052704 | 84 | 150 | 2.0 | 5.0 | 0.00 | 0.00 | 0.00 | 63 | 1000.0 |
| 20260905052204 | 84 | 148 | 3.0 | 5.0 | 0.00 | 0.00 | 0.00 | 64 | 1000.0 |
| 20260905051703 | 84 | 151 | 4.0 | 6.0 | 0.00 | 0.00 | 0.00 | 64 | 1000.0 |
| 20260905050703 | 84 | 152 | 3.0 | 6.0 | 0.00 | 0.00 | 0.00 | 64 | 1000.0 |
| 20260905050204 | 84 | 137 | 4.0 | 7.0 | 0.00 | 0.00 | 0.00 | 66 | 1000.0 |
| 20260905045703 | 84 | 132 | 4.0 | 8.0 | 0.00 | 0.00 | 0.00 | 65 | 1000.0 |
| 20260905045203 | 83 | 130 | 7.0 | 13.0 | 0.00 | 0.00 | 0.00 | 66 | 1000.0 |
| 20260905044704 | 84 | 122 | 6.0 | 8.0 | 0.00 | 0.00 | 0.00 | 64 | 1000.0 |
| 20260905043704 | 85 | 140 | 4.0 | 5.0 | 0.00 | 0.00 | 0.00 | 60 | 1000.0 |
| 20260905043203 | 85 | 140 | 3.0 | 5.0 | 0.00 | 0.00 | 0.00 | 59 | 1000.0 |
| 20260905042704 | 85 | 141 | 4.0 | 5.0 | 0.00 | 0.00 | 0.00 | 61 | 1000.0 |
| 20260905042204 | 85 | 130 | 5.0 | 6.0 | 0.00 | 0.00 | 0.00 | 61 | 1000.0 |
| 20260905041204 | 86 | 134 | 6.0 | 7.0 | 0.00 | 0.00 | 0.00 | 59 | 1000.0 |
| 20260905040704 | 86 | 132 | 5.0 | 6.0 | 0.00 | 0.00 | 0.00 | 60 | 1000.0 |
| 20260905035704 | 85 | 129 | 5.0 | 6.0 | 0.00 | 0.00 | 0.00 | 65 | 1000.0 |
| 20260905035204 | 85 | 129 | 5.0 | 6.0 | 0.00 | 0.00 | 0.00 | 67 | 1000.0 |
| 20260905034203 | 85 | 130 | 5.0 | 6.0 | 0.00 | 0.00 | 0.00 | 65 | 1000.0 |
| 20260905033704 | 86 | 135 | 5.0 | 6.0 | 0.00 | 0.00 | 0.00 | 64 | 1000.0 |
| 20260905033204 | 86 | 126 | 5.0 | 6.0 | 0.00 | 0.00 | 0.00 | 61 | 1000.0 |
| 20260905032703 | 87 | 126 | 5.0 | 6.0 | 0.00 | 0.00 | 0.00 | 60 | 1000.0 |
| 20260905032204 | 87 | 122 | 5.0 | 6.0 | 0.00 | 0.00 | 0.00 | 61 | 1000.0 |
| 20260905031703 | 87 | 126 | 5.0 | 6.0 | 0.00 | 0.00 | 0.00 | 60 | 1000.0 |
| 20260905031204 | 87 | 122 | 4.0 | 6.0 | 0.00 | 0.00 | 0.00 | 62 | 1000.0 |
| 20260905025204 | 88 | 123 | 2.0 | 3.0 | 0.00 | 0.00 | 0.00 | 59 | 1000.0 |
| 20260905024703 | 88 | 136 | 3.0 | 5.0 | 0.00 | 0.00 | 0.00 | 57 | 1000.0 |
| 20260905024204 | 89 | 127 | 3.0 | 5.0 | 0.00 | 0.00 | 0.00 | 55 | 1000.0 |
| 20260905023704 | 89 | 123 | 2.0 | 3.0 | 0.00 | 0.00 | 0.00 | 56 | 1000.0 |
| 20260905023203 | 89 | 62 | 2.0 | 3.0 | 0.00 | 0.00 | 0.00 | 55 | 1000.0 |
| 20260905022703 | 91 | 163 | 2.0 | 3.0 | 0.00 | 0.00 | 0.00 | 51 | 1000.0 |
| 20260905022204 | 91 | 57 | 2.0 | 7.0 | 0.00 | 0.00 | 0.00 | 50 | 1000.0 |
| 20260905021703 | 91 | 97 | 1.0 | 3.0 | 0.00 | 0.00 | 0.00 | 50 | 1000.0 |
| 20260905021203 | 91 | 28 | 0.0 | 2.0 | 0.00 | 0.00 | 0.00 | 51 | 1000.0 |
| 20260905020704 | 92 | 50 | 1.0 | 2.0 | 0.00 | 0.00 | 0.00 | 49 | 1000.0 |
| 20260905020204 | 92 | 98 | 0.0 | 0.0 | 0.00 | 0.00 | 0.00 | 47 | 1000.0 |
| 20260905015703 | 93 | 98 | 0.0 | 0.0 | 0.00 | 0.00 | 0.00 | 46 | 1000.0 |
| 20260905015203 | 93 | 98 | 0.0 | 0.0 | 0.00 | 0.00 | 0.00 | 45 | 1000.0 |
| 20260905014704 | 94 | 98 | 0.0 | 0.0 | 0.00 | 0.00 | 0.00 | 44 | 1000.0 |
| 20260905014203 | 94 | 98 | 0.0 | 0.0 | 0.00 | 0.00 | 0.00 | 43 | 1000.0 |
| 20260905013204 | 96 | 98 | 0.0 | 0.0 | 0.00 | 0.00 | 0.00 | 39 | 1000.0 |
| 20260905012704 | 97 | 98 | 0.0 | 0.0 | 0.00 | 0.00 | 0.00 | 37 | 1000.0 |
| 20260905012204 | 97 | 98 | 0.0 | 0.0 | 0.00 | 0.00 | 0.00 | 37 | 1000.0 |
| 20260905011704 | 97 | 98 | 0.0 | 0.0 | 0.00 | 0.00 | 0.00 | 37 | 1000.0 |
| 20260905011203 | 97 | 98 | 0.0 | 0.0 | 0.00 | 0.00 | 0.00 | 37 | 1000.0 |
| 20260905010704 | 97 | 98 | 0.0 | 0.0 | 0.00 | 0.00 | 0.00 | 37 | 1000.0 |
| 20260905010204 | 97 | 98 | 0.0 | 0.0 | 0.00 | 0.00 | 0.00 | 37 | 1000.0 |
| 20260905005203 | 97 | 98 | 0.0 | 0.0 | 0.00 | 0.00 | 0.00 | 37 | 1000.0 |
| 20260905004704 | 97 | 98 | 0.0 | 0.0 | 0.00 | 0.00 | 0.00 | 37 | 1000.0 |
| 20260905004204 | 97 | 98 | 0.0 | 3.0 | 0.00 | 0.00 | 0.00 | 36 | 1000.0 |
| 20260905003703 | 97 | 223 | 2.0 | 5.0 | 0.00 | 0.00 | 0.00 | 36 | 1000.0 |
| 20260905003204 | 98 | 222 | 3.0 | 5.0 | 0.00 | 0.00 | 0.00 | 36 | 1000.0 |
| 20260905002704 | 98 | 226 | 3.0 | 6.0 | 0.00 | 0.00 | 0.00 | 35 | 1000.0 |
| 20260905002204 | 98 | 212 | 2.0 | 6.0 | 0.00 | 0.00 | 0.00 | 35 | 1000.0 |
| 20260905001703 | 99 | 110 | 1.0 | 3.0 | 0.00 | 0.00 | 0.00 | 35 | 1000.0 |
| 20260905001204 | 99 | 191 | 3.0 | 5.0 | 0.00 | 0.00 | 0.00 | 34 | 1000.0 |
| 20260905000704 | 99 | 184 | 3.0 | 6.0 | 0.00 | 0.00 | 0.00 | 34 | 1000.0 |
| 20260905000204 | 99 | 180 | 5.0 | 7.0 | 0.00 | 0.00 | 0.00 | 33 | 1000.0 |
| 20260904235704 | 99 | 168 | 3.0 | 7.0 | 0.00 | 0.00 | 0.00 | 33 | 1000.0 |
| 20260904235204 | 99 | 172 | 6.0 | 8.0 | 0.00 | 0.00 | 0.00 | 32 | 1000.0 |
| 20260904234704 | 100 | 180 | 6.0 | 8.0 | 0.00 | 0.00 | 0.00 | 32 | 1000.0 |
| 20260904233703 | 100 | 203 | 3.0 | 7.0 | 0.00 | 0.00 | 0.00 | 32 | 1000.0 |
| 20260904232704 | 100 | 192 | 2.0 | 6.0 | 0.00 | 0.00 | 0.00 | 32 | 1000.0 |
| 20260904232204 | 100 | 182 | 6.0 | 9.0 | 0.00 | 0.00 | 0.00 | 31 | 1000.0 |
| 20260904231703 | 100 | 214 | 5.0 | 8.0 | 0.00 | 0.00 | 0.00 | 32 | 1000.0 |
| 20260904231204 | 100 | 150 | 3.0 | 6.0 | 0.00 | 0.00 | 0.00 | 31 | 1000.0 |
| 20260904230204 | 100 | 69 | 2.0 | 7.0 | 0.00 | 0.00 | 0.00 | 31 | 1000.0 |
| 20260904225703 | 101 | 148 | 5.0 | 8.0 | 0.00 | 0.00 | 0.00 | 30 | 1000.0 |
| 20260904225203 | 101 | 113 | 3.0 | 7.0 | 0.00 | 0.00 | 0.00 | 31 | 1000.0 |
| 20260904224704 | 100 | 178 | 6.0 | 9.0 | 0.00 | 0.00 | 0.00 | 31 | 1000.0 |
| 20260904224204 | 100 | 178 | 5.0 | 10.0 | 0.00 | 0.00 | 0.00 | 31 | 1000.0 |
| 20260904223704 | 100 | 151 | 6.0 | 9.0 | 0.00 | 0.00 | 0.00 | 31 | 1000.0 |
| 20260904223204 | 100 | 135 | 10.0 | 14.0 | 0.00 | 0.00 | 0.00 | 31 | 1000.0 |
| 20260904222704 | 100 | 136 | 6.0 | 12.0 | 0.00 | 0.00 | 0.00 | 31 | 1000.0 |
| 20260904221703 | 101 | 198 | 5.0 | 8.0 | 0.00 | 0.00 | 0.00 | 29 | 1000.0 |
| 20260904221204 | 100 | 160 | 6.0 | 12.0 | 0.00 | 0.00 | 0.00 | 30 | 1000.0 |
| 20260904220704 | 100 | 186 | 7.0 | 12.0 | 0.00 | 0.00 | 0.00 | 30 | 1000.0 |
| 20260904220204 | 100 | 198 | 9.0 | 13.0 | 0.00 | 0.00 | 0.00 | 30 | 1000.0 |
| 20260904215703 | 99 | 130 | 7.0 | 10.0 | 0.00 | 0.00 | 0.00 | 31 | 1000.0 |
| 20260904214704 | 99 | 121 | 9.0 | 14.0 | 0.00 | 0.00 | 0.00 | 31 | 1000.0 |
| 20260904214204 | 100 | 132 | 6.0 | 13.0 | 0.00 | 0.00 | 0.00 | 30 | 1000.0 |
| 20260904213704 | 101 | 161 | 6.0 | 12.0 | 0.00 | 0.00 | 0.00 | 30 | 1000.0 |
| 20260904213204 | 101 | 125 | 5.0 | 8.0 | 0.00 | 0.00 | 0.00 | 30 | 1000.0 |
| 20260904212703 | 101 | 334 | 1.0 | 6.0 | 0.00 | 0.00 | 0.00 | 30 | 1000.0 |
| 20260904212204 | 100 | 134 | 3.0 | 6.0 | 0.00 | 0.00 | 0.00 | 31 | 1000.0 |
| 20260904211204 | 101 | 174 | 6.0 | 10.0 | 0.00 | 0.00 | 0.00 | 29 | 1000.0 |
| 20260904210703 | 101 | 158 | 6.0 | 10.0 | 0.00 | 0.00 | 0.00 | 29 | 1000.0 |
| 20260904210203 | 101 | 212 | 5.0 | 10.0 | 0.00 | 0.00 | 0.00 | 30 | 1000.0 |
| 20260904205704 | 101 | 205 | 2.0 | 7.0 | 0.00 | 0.00 | 0.00 | 30 | 1000.0 |
| 20260904205204 | 101 | 146 | 4.0 | 9.0 | 0.00 | 0.00 | 0.00 | 30 | 1000.0 |
| 20260904204703 | 101 | 182 | 6.0 | 10.0 | 0.00 | 0.00 | 0.00 | 30 | 1000.0 |
| 20260904204204 | 100 | 149 | 5.0 | 9.0 | 0.00 | 0.00 | 0.00 | 30 | 1000.0 |
| 20260904203704 | 100 | 154 | 7.0 | 12.0 | 0.00 | 0.00 | 0.00 | 30 | 1000.0 |
| 20260904203204 | 100 | 178 | 8.0 | 13.0 | 0.00 | 0.00 | 0.00 | 31 | 1000.0 |
| 20260904202704 | 100 | 168 | 8.0 | 12.0 | 0.00 | 0.00 | 0.00 | 31 | 1000.0 |
| 20260904202203 | 100 | 181 | 3.0 | 8.0 | 0.00 | 0.00 | 0.00 | 33 | 1000.0 |
| 20260904201704 | 99 | 148 | 8.0 | 13.0 | 0.00 | 0.00 | 0.00 | 32 | 1000.0 |
| 20260904201204 | 100 | 170 | 7.0 | 9.0 | 0.00 | 0.00 | 0.00 | 31 | 1000.0 |
| 20260904200704 | 101 | 166 | 5.0 | 9.0 | 0.00 | 0.00 | 0.00 | 30 | 1000.0 |
| 20260904200204 | 101 | 183 | 3.0 | 9.0 | 0.00 | 0.00 | 0.00 | 31 | 1000.0 |
| 20260904195203 | 100 | 119 | 2.0 | 7.0 | 0.00 | 0.00 | 0.00 | 32 | 1000.0 |
| 20260904194704 | 99 | 210 | 1.0 | 6.0 | 0.00 | 0.00 | 0.00 | 34 | 1000.0 |
| 20260904194203 | 99 | 174 | 2.0 | 9.0 | 0.00 | 0.00 | 0.00 | 33 | 1000.0 |
| 20260904193704 | 100 | 176 | 4.0 | 8.0 | 0.00 | 0.00 | 0.00 | 34 | 1000.0 |
| 20260904193204 | 99 | 123 | 6.0 | 14.0 | 0.00 | 0.00 | 0.00 | 34 | 1000.0 |
| 20260904191703 | 99 | 200 | 3.0 | 10.0 | 0.00 | 0.00 | 0.00 | 34 | 1000.0 |
| 20260904191204 | 99 | 224 | 6.0 | 13.0 | 0.00 | 0.00 | 0.00 | 33 | 1000.0 |
| 20260904190704 | 99 | 177 | 8.0 | 15.0 | 0.00 | 0.00 | 0.00 | 33 | 1000.0 |
| 20260904190204 | 100 | 226 | 7.0 | 14.0 | 0.00 | 0.00 | 0.00 | 32 | 1000.0 |
| 20260904185704 | 99 | 253 | 6.0 | 10.0 | 0.00 | 0.00 | 0.00 | 33 | 1000.0 |
| 20260904185204 | 98 | 122 | 6.0 | 10.0 | 0.00 | 0.00 | 0.00 | 33 | 1000.0 |
| 20260904184704 | 98 | 202 | 7.0 | 13.0 | 0.00 | 0.00 | 0.00 | 34 | 1000.0 |
| 20260904184203 | 99 | 244 | 6.0 | 8.0 | 0.00 | 0.00 | 0.00 | 34 | 1000.0 |
| 20260904183703 | 98 | 161 | 4.0 | 10.0 | 0.00 | 0.00 | 0.00 | 35 | 1000.0 |
| 20260904183203 | 98 | 133 | 7.0 | 14.0 | 0.00 | 0.00 | 0.00 | 34 | 1000.0 |
| 20260904182703 | 99 | 208 | 6.0 | 9.0 | 0.00 | 0.00 | 0.00 | 32 | 1000.0 |
| 20260904181704 | 98 | 225 | 5.0 | 10.0 | 0.00 | 0.00 | 0.00 | 33 | 1000.0 |
| 20260904181203 | 98 | 235 | 5.0 | 13.0 | 0.00 | 0.00 | 0.00 | 35 | 1000.0 |
| 20260904180704 | 98 | 238 | 3.0 | 10.0 | 0.00 | 0.00 | 0.00 | 34 | 1000.0 |
| 20260904180204 | 97 | 122 | 7.0 | 13.0 | 0.00 | 0.00 | 0.00 | 35 | 1000.0 |
| 20260904175704 | 98 | 196 | 7.0 | 12.0 | 0.00 | 0.00 | 0.00 | 36 | 1000.0 |
| 20260904175204 | 97 | 200 | 5.0 | 10.0 | 0.00 | 0.00 | 0.00 | 36 | 1000.0 |
| 20260904174203 | 96 | 193 | 9.0 | 14.0 | 0.00 | 0.00 | 0.00 | 36 | 1000.0 |
| 20260904173703 | 96 | 134 | 6.0 | 12.0 | 0.00 | 0.00 | 0.00 | 38 | 1000.0 |
| 20260904173203 | 96 | 181 | 9.0 | 13.0 | 0.00 | 0.00 | 0.00 | 38 | 1000.0 |
| 20260904172206 | 96 | 194 | 9.0 | 15.0 | 0.00 | 0.00 | 0.00 | 40 | 1000.0 |
| 20260904171704 | 96 | 193 | 7.0 | 14.0 | 0.00 | 0.00 | 0.00 | 40 | 1000.0 |
| 20260904171204 | 96 | 190 | 3.0 | 13.0 | 0.00 | 0.00 | 0.00 | 41 | 1000.0 |
| 20260904170704 | 95 | 182 | 9.0 | 15.0 | 0.00 | 0.00 | 0.00 | 40 | 1000.0 |
| 20260904170204 | 96 | 190 | 2.0 | 9.0 | 0.00 | 0.00 | 0.00 | 42 | 1000.0 |
| 20260904165707 | 96 | 198 | 2.0 | 6.0 | 0.00 | 0.00 | 0.00 | 43 | 1000.0 |
| 20260904165203 | 95 | 199 | 3.0 | 7.0 | 0.00 | 0.00 | 0.00 | 44 | 1000.0 |
| 20260904164704 | 94 | 278 | 6.0 | 10.0 | 0.00 | 0.00 | 0.00 | 44 | 1000.0 |
| 20260904164204 | 94 | 195 | 9.0 | 13.0 | 0.00 | 0.00 | 0.00 | 44 | 1000.0 |
| 20260904163704 | 94 | 195 | 6.0 | 14.0 | 0.00 | 0.00 | 0.00 | 45 | 1000.0 |
| 20260904163204 | 94 | 248 | 3.0 | 9.0 | 0.00 | 0.00 | 0.00 | 46 | 1000.0 |
| 20260904162703 | 94 | 202 | 4.0 | 7.0 | 0.00 | 0.00 | 0.00 | 46 | 1000.0 |
| 20260904161703 | 94 | 103 | 5.0 | 9.0 | 0.00 | 0.00 | 0.00 | 46 | 1000.0 |
| 20260904160703 | 93 | 237 | 4.0 | 8.0 | 0.00 | 0.00 | 0.00 | 48 | 1000.0 |
| 20260904160204 | 93 | 231 | 5.0 | 12.0 | 0.00 | 0.00 | 0.00 | 49 | 1000.0 |
| 20260904155703 | 93 | 214 | 5.0 | 9.0 | 0.00 | 0.00 | 0.00 | 49 | 1000.0 |
| 20260904154704 | 92 | 236 | 5.0 | 9.0 | 0.00 | 0.00 | 0.00 | 50 | 1000.0 |
| 20260904154203 | 91 | 230 | 3.0 | 8.0 | 0.00 | 0.00 | 0.00 | 51 | 1000.0 |
| 20260904153704 | 91 | 184 | 6.0 | 8.0 | 0.00 | 0.00 | 0.00 | 52 | 1000.0 |
| 20260904153204 | 91 | 235 | 5.0 | 8.0 | 0.00 | 0.00 | 0.00 | 52 | 1000.0 |
| 20260904151204 | 90 | 217 | 3.0 | 8.0 | 0.00 | 0.00 | 0.00 | 54 | 1000.0 |
| 20260904150703 | 90 | 212 | 4.0 | 8.0 | 0.00 | 0.00 | 0.00 | 55 | 1000.0 |
| 20260904145204 | 89 | 174 | 4.0 | 9.0 | 0.00 | 0.00 | 0.00 | 56 | 1000.0 |
| 20260904144203 | 89 | 216 | 5.0 | 8.0 | 0.00 | 0.00 | 0.00 | 55 | 1000.0 |
| 20260904143704 | 89 | 219 | 3.0 | 7.0 | 0.00 | 0.00 | 0.00 | 56 | 1000.0 |
| 20260904143204 | 88 | 193 | 4.0 | 9.0 | 0.00 | 0.00 | 0.00 | 57 | 1000.0 |
| 20260904142703 | 88 | 219 | 3.0 | 9.0 | 0.00 | 0.00 | 0.00 | 57 | 1000.0 |
| 20260904141203 | 87 | 214 | 5.0 | 9.0 | 0.00 | 0.00 | 0.00 | 59 | 1000.0 |
| 20260904140704 | 86 | 163 | 5.0 | 9.0 | 0.00 | 0.00 | 0.00 | 59 | 1000.0 |
| 20260904140203 | 86 | 107 | 4.0 | 9.0 | 0.00 | 0.00 | 0.00 | 61 | 1000.0 |
| 20260904135703 | 86 | 108 | 6.0 | 9.0 | 0.00 | 0.00 | 0.00 | 61 | 1000.0 |
| 20260904135204 | 86 | 155 | 4.0 | 9.0 | 0.00 | 0.00 | 0.00 | 62 | 1000.0 |
| 20260904134703 | 86 | 220 | 5.0 | 9.0 | 0.00 | 0.00 | 0.00 | 62 | 1000.0 |
| 20260904134204 | 85 | 195 | 5.0 | 8.0 | 0.00 | 0.00 | 0.00 | 63 | 1000.0 |
| 20260904133704 | 84 | 194 | 6.0 | 9.0 | 0.00 | 0.00 | 0.00 | 63 | 1000.0 |
| 20260904132704 | 84 | 215 | 5.0 | 9.0 | 0.00 | 0.00 | 0.00 | 65 | 1000.0 |
| 20260904132204 | 84 | 225 | 5.0 | 12.0 | 0.00 | 0.00 | 0.00 | 65 | 1000.0 |
| 20260904131703 | 84 | 183 | 5.0 | 10.0 | 0.00 | 0.00 | 0.00 | 65 | 1000.0 |
| 20260904131204 | 83 | 199 | 7.0 | 10.0 | 0.00 | 0.00 | 0.00 | 66 | 1000.0 |
| 20260904130704 | 83 | 194 | 9.0 | 12.0 | 0.00 | 0.00 | 0.00 | 66 | 1000.0 |
| 20260904130204 | 83 | 187 | 7.0 | 9.0 | 0.00 | 0.00 | 0.00 | 66 | 1000.0 |
| 20260904125703 | 83 | 181 | 7.0 | 9.0 | 0.00 | 0.00 | 0.00 | 66 | 1000.0 |
| 20260904125203 | 83 | 189 | 6.0 | 8.0 | 0.00 | 0.00 | 0.00 | 67 | 1000.0 |
| 20260904124704 | 82 | 201 | 5.0 | 7.0 | 0.00 | 0.00 | 0.00 | 67 | 1000.0 |
| 20260904124203 | 82 | 184 | 6.0 | 9.0 | 0.00 | 0.00 | 0.00 | 68 | 1000.0 |
| 20260904123704 | 82 | 189 | 5.0 | 9.0 | 0.00 | 0.00 | 0.00 | 68 | 1000.0 |
| 20260904123204 | 82 | 192 | 7.0 | 9.0 | 0.00 | 0.00 | 0.00 | 68 | 1000.0 |
| 20260904122704 | 82 | 199 | 5.0 | 9.0 | 0.00 | 0.00 | 0.00 | 68 | 1000.0 |
| 20260904121704 | 82 | 201 | 5.0 | 8.0 | 0.00 | 0.00 | 0.00 | 68 | 1000.0 |
| 20260904121204 | 82 | 196 | 5.0 | 8.0 | 0.00 | 0.00 | 0.00 | 68 | 1000.0 |
| 20260904120703 | 82 | 209 | 4.0 | 8.0 | 0.00 | 0.00 | 0.00 | 68 | 1000.0 |
| 20260904120204 | 82 | 204 | 4.0 | 7.0 | 0.00 | 0.00 | 0.00 | 68 | 1000.0 |
| 20260904115704 | 82 | 203 | 5.0 | 9.0 | 0.00 | 0.00 | 0.00 | 68 | 1000.0 |
| 20260904115203 | 82 | 192 | 5.0 | 8.0 | 0.00 | 0.00 | 0.00 | 68 | 1000.0 |
| 20260904114704 | 82 | 190 | 6.0 | 9.0 | 0.00 | 0.00 | 0.00 | 68 | 1000.0 |
| 20260904114204 | 82 | 197 | 5.0 | 7.0 | 0.00 | 0.00 | 0.00 | 68 | 1000.0 |
| 20260904113703 | 82 | 206 | 3.0 | 7.0 | 0.00 | 0.00 | 0.00 | 68 | 1000.0 |
| 20260904113204 | 82 | 197 | 3.0 | 6.0 | 0.00 | 0.00 | 0.00 | 68 | 1000.0 |
| 20260904111704 | 82 | 201 | 5.0 | 6.0 | 0.00 | 0.00 | 0.00 | 70 | 1000.0 |
| 20260904111204 | 81 | 196 | 3.0 | 5.0 | 0.00 | 0.00 | 0.00 | 72 | 1000.0 |
| 20260904110703 | 81 | 179 | 3.0 | 6.0 | 0.00 | 0.00 | 0.00 | 72 | 1000.0 |
| 20260904105204 | 81 | 169 | 3.0 | 6.0 | 0.00 | 0.00 | 0.00 | 70 | 1000.0 |
| 20260904104703 | 81 | 180 | 4.0 | 7.0 | 0.00 | 0.00 | 0.00 | 69 | 1000.0 |